Wind_Speed
6 8 6 6 10 11 12 10 11 10 9 8 9 9 9 9 8 8 8 8 8 6 6 6 5 4 5 7 9 9 8 6 6 7 7 7 7 6 6 5 5 5 6
9 8 7 7 9 10 11 11 11 11 10 9 9 9 9 9 8 8 7 7 7 7 9 9 8 6 3 4 5 5 5 6 5 4 4 5 5 4 4 5 6 7 7
11 11 10 8 7 9 10 11 12 12 10 9 9 9 10 10 10 9 8 7 8 9 9 8 8 8 7 4 2 2 2 2 3 3 2 3 3 4 5 6 6 6 6
13 14 12 10 6 5 7 9 11 12 12 10 9 9 10 10 9 9 9 9 8 9 8 8 8 8 7 6 5 3 2 1 1 2 3 2 4 4 5 5 6 6 6
15 15 14 12 8 6 5 6 8 11 13 10 10 9 9 9 9 9 9 9 9 8 8 8 8 7 7 6 4 3 2 1 1 2 4 3 4 4 4 4 4 4 4
15 16 17 14 12 9 5 4 4 7 10 10 9 9 9 10 10 9 9 9 9 9 9 9 8 8 7 6 5 4 3 3 3 3 4 4 4 5 5 6 6 4 4
14 18 18 16 15 12 10 6 4 3 6 9 9 8 9 9 9 11 11 10 9 9 9 8 8 9 8 8 7 6 5 5 5 5 5 5 6 5 5 6 7 6 5
14 15 16 17 16 15 13 10 7 3 3 5 8 7 6 6 8 8 8 8 9 9 9 10 10 9 9 8 7 6 6 6 6 6 7 7 7 6 6 6 7 7 6
10 12 14 15 16 17 17 15 12 8 5 2 2 5 5 4 4 5 7 7 6 7 7 8 8 8 8 7 7 7 7 8 8 9 8 8 7 7 7 7 8 8 7
11 13 12 14 17 17 18 17 15 12 9 7 3 2 2 3 3 3 3 4 5 5 6 6 6 5 5 5 5 6 7 8 9 9 10 9 9 9 9 9 9 9 9
16 18 18 14 15 17 18 19 18 16 14 11 9 8 7 4 3 4 5 5 5 5 6 5 6 6 5 6 6 6 7 9 10 11 11 10 10 11 10 10 9 8 8
15 17 18 20 17 16 18 19 20 19 18 17 15 13 12 10 8 7 7 7 7 8 8 8 8 9 9 9 9 9 9 10 12 14 13 13 12 13 12 11 10 9 8
16 16 18 19 20 19 18 17 19 20 20 19 18 17 16 15 13 13 13 12 11 11 11 12 12 12 11 12 14 13 12 13 13 15 14 16 15 15 14 13 11 10 9
16 15 17 19 20 20 18 20 20 20 21 22 20 19 20 20 18 18 17 17 17 16 15 15 15 16 16 16 16 16 17 16 17 16 17 18 17 16 15 14 13 11 10
20 19 20 19 20 21 21 20 20 21 23 23 25 23 22 22 22 22 22 21 21 21 21 20 19 19 19 19 19 19 19 19 20 19 21 18 18 16 15 15 14 13 12
25 24 23 22 22 21 21 23 23 23 23 22 22 23 25 26 25 25 26 26 26 26 26 25 25 24 23 23 22 22 22 21 21 23 23 19 18 17 17 16 15 15 14
29 29 27 25 24 25 23 23 26 24 23 23 23 24 24 25 27 27 28 30 29 29 29 30 29 29 28 27 25 24 25 24 23 24 23 23 19 19 18 17 17 16 16
28 29 30 30 27 27 27 26 25 26 27 27 27 27 27 26 27 28 28 30 31 31 30 31 31 32 31 30 29 27 27 27 26 25 26 23 22 20 20 19 19 18 18
32 31 31 31 33 29 29 32 27 28 31 31 30 30 31 31 32 32 32 31 30 31 30 30 30 32 32 32 32 31 30 30 29 28 27 27 24 22 21 20 20 19 20
35 34 35 37 37 36 34 34 36 33 33 35 35 36 35 36 35 35 35 35 35 36 36 34 32 32 31 31 33 35 34 33 32 31 30 28 27 26 23 22 21 21 21
35 35 35 35 37 38 38 39 42 40 38 38 38 38 40 41 39 38 38 36 36 38 38 38 38 37 36 34 35 35 37 34 35 33 33 31 29 28 29 25 23 21 21
34 36 35 35 36 38 41 41 43 46 45 43 42 42 43 45 43 41 41 40 39 40 40 41 40 39 39 38 38 35 37 37 36 36 35 34 32 31 31 30 26 24 22
33 33 34 34 34 35 35 37 38 41 45 43 38 37 38 42 46 46 45 45 44 43 43 43 41 40 40 38 38 37 38 39 37 37 37 36 35 33 32 33 31 28 29
31 31 31 30 30 30 30 31 32 34 38 42 40 37 35 35 36 40 46 49 48 46 46 46 45 45 44 43 41 39 39 42 42 40 38 37 36 36 34 35 35 35 34
26 26 25 24 25 24 24 26 27 29 30 32 35 35 35 34 34 36 38 41 47 51 52 51 49 50 51 49 47 44 43 43 45 42 41 41 40 39 38 37 38 39 40
21 21 22 22 23 24 25 26 28 29 29 30 30 32 33 34 35 35 35 35 39 43 45 49 52 55 56 56 54 51 49 46 46 46 43 42 42 41 40 42 45 45 44
Wind_Direction
166 151 139 114 92 74 61 62 59 60 57 51 47 41 36 31 30 32 38 39 36 39 74 82 95 124 158 186 206 219 230 248 256 249 261 270 289 303 308 313 316 324 326
184 179 164 136 114 90 75 65 58 56 53 48 44 43 40 37 36 38 42 50 52 92 90 81 79 81 109 165 184 203 218 240 255 258 273 286 296 305 307 316 318 321 323
194 194 184 156 130 98 79 61 53 52 52 52 49 44 40 37 37 39 44 50 58 97 85 82 81 75 72 93 137 186 216 252 279 278 255 279 309 309 312 317 320 328 330
202 200 191 176 162 121 88 65 44 40 37 43 45 45 42 40 41 43 48 49 50 71 71 67 69 72 75 78 85 91 86 66 319 323 314 319 312 313 318 321 320 324 330
200 203 198 194 194 182 123 88 52 31 30 41 42 46 46 47 48 50 53 59 62 65 67 65 65 68 70 71 70 67 61 13 335 322 315 330 330 327 333 330 345 358 354
205 204 204 205 205 206 183 129 74 48 33 38 45 48 48 48 48 50 54 58 60 62 63 64 62 61 61 62 58 45 27 13 5 337 0 357 355 7 341 344 341 354 352
200 198 206 210 208 207 206 192 161 43 47 24 31 48 50 48 53 54 53 53 57 59 60 60 59 57 53 50 48 42 31 21 8 0 2 352 353 358 346 338 330 337 338
201 199 212 218 220 219 220 220 200 166 59 38 25 34 34 47 47 45 48 51 55 59 61 62 61 59 55 52 46 38 28 18 5 6 5 359 358 348 339 328 324 320 319
202 196 210 218 226 229 226 225 224 209 175 131 68 19 29 24 39 42 42 45 47 50 50 51 52 52 53 49 45 36 26 17 8 13 6 1 351 339 335 327 316 316 314
220 216 217 224 225 229 232 231 232 231 218 205 203 230 326 353 351 354 6 13 17 17 17 22 21 24 28 22 16 9 4 0 354 354 350 354 345 339 335 327 323 318 317
233 235 227 227 234 234 233 234 234 234 236 231 225 221 227 244 272 301 305 319 318 330 328 330 337 332 333 332 332 337 344 344 336 335 330 337 332 330 328 323 317 315 312
238 236 239 238 238 241 243 242 242 241 240 240 239 234 234 241 251 259 263 270 283 284 290 294 303 310 310 309 307 309 314 317 322 332 328 321 319 317 318 315 311 308 307
233 237 239 244 248 252 253 250 250 249 248 247 246 251 248 244 252 254 257 260 262 267 274 281 284 290 291 295 299 299 300 302 305 317 320 315 312 306 305 307 306 302 300
236 243 249 251 250 253 261 262 257 252 251 252 252 252 258 258 256 258 258 261 264 266 268 274 278 283 285 287 290 293 292 296 301 308 311 311 307 300 297 296 295 294 291
237 246 247 252 256 259 264 263 263 259 253 251 253 255 257 263 266 263 266 267 269 269 270 268 268 274 279 281 284 286 287 289 295 302 308 308 305 302 298 292 289 286 283
246 247 246 254 263 261 257 260 259 259 260 259 261 261 263 264 266 269 268 268 269 271 270 269 269 269 270 278 282 283 284 284 288 296 306 305 301 298 298 291 286 283 278
246 243 248 248 252 259 259 258 258 258 260 260 261 262 267 272 273 270 268 270 270 268 271 272 272 271 272 272 275 278 281 281 281 287 298 300 298 296 293 289 283 279 276
242 248 260 260 250 252 258 258 256 255 257 259 262 265 267 271 276 277 275 273 273 272 268 270 272 273 272 272 273 274 276 278 277 278 288 292 294 291 289 286 282 276 273
247 248 254 261 267 258 250 257 257 258 259 260 267 271 276 275 274 275 275 274 276 277 273 271 271 273 274 274 273 273 272 274 273 274 281 286 286 287 285 283 279 275 272
244 245 245 246 249 256 260 258 260 255 259 266 271 275 278 279 279 276 273 272 273 274 275 275 274 274 274 274 273 272 271 271 270 270 274 278 283 283 280 281 278 277 275
253 258 261 261 259 259 256 260 265 264 261 258 265 273 276 276 278 279 277 274 273 275 276 275 275 274 273 273 273 273 274 273 270 267 269 275 278 279 280 278 277 276 275
252 254 255 256 256 257 258 259 260 266 269 267 263 263 269 273 274 274 273 273 272 273 274 275 273 273 270 268 271 272 272 272 270 269 269 271 273 274 275 277 273 273 277
255 258 259 260 261 262 263 265 265 268 274 275 274 270 265 266 273 272 272 271 268 270 270 271 272 271 270 268 268 269 271 273 273 267 267 270 273 273 272 273 273 269 283
259 261 264 266 268 269 270 271 269 267 266 271 274 272 267 265 263 265 270 269 269 269 267 266 269 271 270 267 267 268 273 274 274 272 268 269 271 273 273 271 268 269 283
260 261 264 266 268 268 267 266 266 268 269 269 272 275 278 277 273 267 262 264 266 266 266 266 267 267 270 269 267 267 269 271 272 272 271 269 269 271 272 272 266 268 272
256 260 263 265 267 268 269 271 272 272 271 271 272 273 275 277 278 279 276 273 266 265 267 268 268 267 268 269 269 269 268 266 268 272 272 272 273 269 268 268 264 264 267
Height
3178 3180 3182 3183 3182 3183 3182 3181 3181 3181 3181 3180 3179 3179 3179 3178 3177 3177 3177 3176 3175 3175 3175 3175 3176 3177 3177 3178 3180 3181 3182 3183 3183 3184 3185 3185 3185 3185 3185 3185 3185 3185 3184
3178 3180 3181 3183 3183 3183 3183 3182 3182 3182 3181 3181 3181 3181 3180 3179 3178 3178 3177 3177 3177 3177 3177 3177 3177 3177 3178 3178 3180 3181 3182 3183 3183 3184 3184 3184 3184 3184 3185 3184 3184 3184 3183
3177 3179 3181 3182 3183 3182 3183 3183 3183 3183 3183 3182 3182 3182 3181 3181 3180 3179 3178 3178 3178 3178 3178 3179 3179 3179 3179 3180 3181 3182 3182 3182 3183 3183 3184 3184 3184 3184 3184 3184 3183 3183 3183
3176 3178 3180 3181 3182 3182 3183 3183 3184 3184 3184 3183 3183 3183 3182 3182 3181 3181 3180 3179 3180 3180 3180 3180 3181 3181 3181 3182 3182 3183 3183 3183 3183 3183 3183 3184 3184 3184 3183 3183 3183 3183 3182
3175 3177 3179 3181 3182 3183 3183 3184 3184 3185 3185 3185 3184 3184 3184 3184 3183 3182 3181 3181 3181 3181 3181 3182 3182 3182 3183 3183 3183 3183 3183 3183 3183 3183 3183 3183 3183 3184 3183 3183 3183 3183 3183
3173 3176 3178 3180 3182 3183 3183 3184 3185 3185 3186 3186 3186 3185 3185 3184 3184 3184 3184 3183 3183 3183 3183 3183 3183 3184 3184 3184 3184 3184 3184 3184 3184 3185 3185 3184 3184 3184 3184 3184 3184 3184 3183
3172 3174 3177 3179 3181 3182 3183 3184 3184 3185 3185 3186 3186 3186 3186 3186 3187 3186 3186 3186 3185 3185 3185 3185 3185 3185 3185 3185 3185 3185 3185 3185 3185 3185 3185 3184 3185 3184 3184 3184 3183 3183 3183
3171 3174 3176 3178 3180 3181 3182 3183 3183 3185 3184 3185 3186 3187 3188 3188 3188 3188 3188 3188 3187 3187 3187 3187 3187 3187 3187 3187 3187 3187 3186 3186 3186 3186 3185 3185 3184 3184 3184 3183 3183 3182 3182
3170 3173 3174 3176 3178 3180 3181 3182 3183 3184 3184 3185 3186 3187 3188 3189 3189 3189 3189 3189 3189 3189 3189 3189 3189 3189 3189 3189 3188 3188 3187 3187 3186 3186 3186 3185 3185 3184 3183 3183 3182 3181 3181
3169 3171 3173 3174 3176 3178 3179 3180 3181 3183 3183 3184 3185 3186 3187 3188 3189 3189 3189 3189 3190 3190 3190 3190 3190 3190 3190 3189 3189 3188 3188 3188 3187 3187 3186 3186 3185 3184 3183 3182 3182 3181 3179
3168 3169 3171 3173 3174 3175 3177 3178 3179 3181 3182 3183 3184 3185 3186 3187 3188 3188 3189 3189 3190 3190 3191 3191 3191 3191 3190 3190 3189 3189 3188 3188 3187 3187 3186 3185 3184 3183 3183 3182 3181 3179 3179
3166 3167 3168 3170 3172 3173 3174 3176 3178 3179 3181 3182 3183 3184 3184 3186 3187 3188 3188 3188 3189 3189 3189 3190 3190 3191 3190 3190 3189 3188 3187 3187 3186 3186 3185 3184 3183 3182 3182 3181 3180 3178 3177
3164 3166 3167 3168 3169 3170 3171 3174 3176 3178 3179 3180 3181 3182 3183 3184 3185 3186 3186 3187 3187 3188 3188 3188 3189 3189 3189 3189 3188 3187 3186 3185 3184 3184 3184 3183 3182 3180 3179 3179 3178 3177 3176
3162 3164 3164 3166 3167 3168 3170 3172 3173 3175 3175 3176 3178 3180 3180 3181 3183 3183 3184 3184 3185 3185 3186 3186 3186 3186 3185 3186 3186 3185 3184 3183 3182 3183 3182 3180 3179 3178 3177 3176 3176 3175 3174
3160 3161 3162 3163 3165 3166 3168 3169 3169 3170 3172 3172 3174 3175 3177 3177 3179 3180 3180 3181 3181 3182 3182 3183 3182 3182 3182 3182 3182 3181 3181 3180 3178 3180 3178 3177 3176 3175 3174 3174 3173 3173 3172
3155 3157 3159 3161 3162 3163 3165 3165 3166 3166 3167 3169 3170 3172 3172 3173 3174 3174 3175 3177 3178 3177 3178 3178 3179 3178 3178 3178 3178 3177 3177 3176 3175 3174 3175 3174 3173 3172 3171 3171 3170 3170 3169
3150 3151 3154 3157 3159 3159 3160 3162 3163 3164 3164 3165 3166 3167 3168 3169 3170 3170 3170 3170 3171 3173 3172 3173 3173 3173 3174 3173 3173 3173 3172 3172 3172 3170 3171 3171 3170 3168 3168 3167 3167 3166 3166
3146 3146 3147 3150 3154 3155 3156 3157 3158 3159 3160 3160 3161 3162 3164 3165 3165 3165 3166 3166 3165 3166 3167 3167 3167 3167 3167 3168 3168 3168 3168 3167 3167 3166 3164 3167 3166 3165 3164 3163 3163 3162 3162
3140 3143 3145 3145 3145 3149 3151 3150 3154 3155 3155 3156 3157 3158 3158 3159 3160 3160 3160 3161 3161 3160 3160 3162 3161 3161 3161 3161 3162 3161 3162 3162 3161 3161 3161 3159 3161 3162 3160 3159 3158 3158 3157
3132 3135 3138 3139 3141 3142 3144 3146 3147 3151 3151 3152 3152 3152 3153 3152 3153 3152 3154 3154 3155 3154 3155 3155 3155 3155 3155 3155 3154 3154 3155 3155 3155 3155 3155 3155 3154 3154 3156 3154 3153 3153 3153
3128 3131 3133 3135 3136 3138 3140 3140 3138 3141 3145 3147 3147 3146 3146 3146 3147 3146 3146 3148 3147 3147 3147 3148 3148 3147 3149 3149 3147 3147 3146 3148 3147 3149 3148 3148 3149 3149 3147 3150 3148 3147 3147
3121 3123 3126 3127 3129 3130 3132 3134 3134 3131 3133 3137 3139 3141 3140 3138 3138 3139 3139 3138 3140 3139 3139 3138 3139 3140 3140 3141 3139 3140 3137 3139 3141 3141 3141 3141 3142 3143 3141 3141 3142 3141 3141
3116 3117 3119 3120 3121 3123 3124 3125 3126 3126 3122 3124 3127 3130 3132 3132 3128 3129 3129 3130 3132 3130 3130 3130 3130 3130 3131 3132 3132 3132 3130 3129 3132 3133 3134 3134 3134 3134 3136 3134 3134 3134 3134
3109 3110 3112 3113 3114 3115 3116 3117 3117 3117 3116 3114 3115 3117 3119 3120 3122 3121 3119 3119 3120 3121 3121 3122 3122 3121 3120 3122 3123 3124 3123 3121 3121 3123 3125 3126 3125 3125 3127 3127 3126 3125 3124
3103 3105 3106 3107 3108 3108 3109 3109 3109 3109 3108 3107 3106 3106 3107 3108 3109 3111 3112 3111 3109 3110 3111 3112 3112 3112 3111 3111 3112 3114 3115 3113 3111 3113 3114 3116 3116 3117 3117 3118 3118 3116 3115
3098 3099 3101 3101 3102 3102 3102 3102 3102 3101 3101 3100 3100 3100 3100 3099 3100 3100 3100 3100 3100 3100 3100 3101 3102 3101 3100 3099 3100 3102 3104 3105 3104 3102 3103 3105 3106 3106 3106 3105 3105 3104 3104